West Bend, WI

2:44 PM CST on December 05, 2019 (GMT -0600)
West Bend Municipal

Weather History for KETB - November, 2019

Change the Weather History Date:

Saturday, November 16, 2019

  Actual Average Record
Temperature  
Mean Temperature 29 °F -  
Max Temperature 37 °F 44 °F 69 °F (1931)
Min Temperature 21 °F 28 °F -1 °F (1933)
Degree Days  
Heating Degree Days 36    
Moisture  
Dew Point 29 °F    
Average Humidity 93    
Maximum Humidity 100    
Minimum Humidity 81    
Precipitation  
Precipitation 0.00 in - - ()
Sea Level Pressure  
Sea Level Pressure 30.34 in    
Wind  
Wind Speed 3 mph (SE)    
Max Wind Speed 10 mph    
Max Gust Speed -    
Visibility 10 miles    
Events      
Averages and records for this station are not official NWS values.
T = Trace of Precipitation, MM = Missing Value Source: NWS Daily Summary

Daily Weather History Graph

Daily Weather History Graph

Search for Another Location

Airport or City:

Astronomy

Nov. 16, 2019 Rise Set
Actual Time 6:47 AM CST 4:27 PM CST
Civil Twilight 6:16 AM CST 4:57 PM CST
Nautical Twilight 5:41 AM CST 5:32 PM CST
Astronomical Twilight 5:07 AM CST 6:06 PM CST
Moon 7:56 PM CST (11/16) 10:43 AM CST (11/16)
Length of Visible Light 10h 41m
Length of Day
9h 40m
Waning Gibbous, 82% of the Moon is Illuminated
Nov 16
Waning Gibbous
Nov 19
Last Quarter
Nov 26
New
Dec 4
First Quarter
Dec 11
Full

Hourly Weather History & Observations

Time (CST) Temp. Windchill Dew Point Humidity Pressure Visibility Wind Dir Wind Speed Gust Speed Precip Events Conditions
12:15 AM 23.0 °F - 21.2 °F 93% 30.43 in 10.0 mi Calm Calm - N/A   Clear
12:35 AM 21.2 °F - 21.2 °F 100% 30.42 in 10.0 mi Calm Calm - N/A   Clear
12:55 AM 21.2 °F - 21.2 °F 100% 30.42 in 10.0 mi Calm Calm - N/A   Clear
1:15 AM 21.2 °F - 21.2 °F 100% 30.42 in 10.0 mi Calm Calm - N/A   Clear
1:35 AM 21.2 °F - 21.2 °F 100% 30.42 in 10.0 mi Calm Calm - N/A   Scattered Clouds
1:55 AM 21.2 °F - 21.2 °F 100% 30.42 in 10.0 mi Calm Calm - N/A   Scattered Clouds
2:15 AM 21.2 °F - 21.2 °F 100% 30.42 in 10.0 mi Calm Calm - N/A   Clear
2:35 AM 21.2 °F - 19.4 °F 93% 30.42 in 10.0 mi Calm Calm - N/A   Clear
2:55 AM 21.2 °F - 21.2 °F 100% 30.42 in 7.0 mi Calm Calm - N/A   Mostly Cloudy
3:15 AM 21.2 °F - 21.2 °F 100% 30.42 in 7.0 mi Calm Calm - N/A   Overcast
3:35 AM 21.2 °F - 21.2 °F 100% 30.42 in 10.0 mi Calm Calm - N/A   Overcast
3:55 AM 23.0 °F - 21.2 °F 93% 30.42 in 10.0 mi Calm Calm - N/A   Overcast
4:15 AM 23.0 °F - 23.0 °F 100% 30.42 in 10.0 mi Calm Calm - N/A   Overcast
4:55 AM 23.0 °F - 23.0 °F 100% 30.42 in 10.0 mi Calm Calm - N/A   Overcast
5:15 AM 24.8 °F - 23.0 °F 93% 30.42 in 10.0 mi Calm Calm - N/A   Overcast
5:35 AM 26.6 °F - 24.8 °F 93% 30.42 in 10.0 mi Calm Calm - N/A   Overcast
5:55 AM 26.6 °F 22.6 °F 24.8 °F 93% 30.42 in 10.0 mi East 3.5 mph - N/A   Overcast
6:15 AM 26.6 °F - 26.6 °F 100% 30.42 in 10.0 mi Calm Calm - N/A   Overcast
6:35 AM 28.4 °F - 26.6 °F 93% 30.42 in 10.0 mi Calm Calm - N/A   Overcast
6:55 AM 28.4 °F 24.6 °F 26.6 °F 93% 30.43 in 10.0 mi ESE 3.5 mph - N/A   Overcast
7:15 AM 30.2 °F 25.4 °F 30.2 °F 100% 30.43 in 10.0 mi ESE 4.6 mph - N/A   Overcast
7:35 AM 32.0 °F 26.4 °F 30.2 °F 93% 30.42 in 10.0 mi ESE 5.8 mph - N/A   Overcast
7:55 AM 32.0 °F 26.4 °F 32.0 °F 100% 30.42 in 10.0 mi ESE 5.8 mph - N/A   Overcast
8:35 AM 33.8 °F 28.6 °F 32.0 °F 93% 30.41 in 10.0 mi SE 5.8 mph - N/A   Overcast
8:55 AM 33.8 °F 27.7 °F 32.0 °F 93% 30.41 in 10.0 mi SSE 6.9 mph - N/A   Overcast
9:15 AM 33.8 °F 27.7 °F 32.0 °F 93% 30.41 in 10.0 mi SE 6.9 mph - N/A   Overcast
9:35 AM 33.8 °F 27.0 °F 32.0 °F 93% 30.41 in 10.0 mi SE 8.1 mph - N/A   Overcast
9:55 AM 35.6 °F 29.9 °F 32.0 °F 87% 30.41 in 10.0 mi SE 6.9 mph - N/A   Overcast
10:15 AM 35.6 °F 28.6 °F 32.0 °F 87% 30.41 in 10.0 mi SSE 9.2 mph - N/A   Overcast
10:35 AM 35.6 °F 29.9 °F 32.0 °F 87% 30.41 in 10.0 mi SSE 6.9 mph - N/A   Overcast
10:55 AM 35.6 °F 29.9 °F 32.0 °F 87% 30.40 in 10.0 mi SSE 6.9 mph - N/A   Overcast
11:15 AM 35.6 °F 29.9 °F 32.0 °F 87% 30.38 in 10.0 mi SE 6.9 mph - N/A   Overcast
11:35 AM 37.4 °F 31.4 °F 32.0 °F 81% 30.38 in 10.0 mi South 8.1 mph - N/A   Overcast
11:55 AM 35.6 °F 28.6 °F 32.0 °F 87% 30.36 in 10.0 mi SE 9.2 mph - N/A   Overcast
12:15 PM 35.6 °F 29.2 °F 32.0 °F 87% 30.35 in 10.0 mi SE 8.1 mph - N/A   Overcast
12:35 PM 35.6 °F 30.7 °F 32.0 °F 87% 30.35 in 10.0 mi SE 5.8 mph - N/A   Overcast
12:55 PM 35.6 °F 29.2 °F 32.0 °F 87% 30.33 in 10.0 mi SE 8.1 mph - N/A   Overcast
1:15 PM 35.6 °F 28.0 °F 32.0 °F 87% 30.33 in 10.0 mi SSE 10.4 mph - N/A   Overcast
1:35 PM 35.6 °F 29.2 °F 32.0 °F 87% 30.31 in 10.0 mi SE 8.1 mph - N/A   Mostly Cloudy
1:55 PM 37.4 °F 31.4 °F 32.0 °F 81% 30.31 in 10.0 mi SE 8.1 mph - N/A   Overcast
2:35 PM 37.4 °F 32.8 °F 32.0 °F 81% 30.30 in 10.0 mi ESE 5.8 mph - N/A   Clear
2:55 PM 37.4 °F 32.1 °F 32.0 °F 81% 30.29 in 10.0 mi SE 6.9 mph - N/A   Clear
3:15 PM 35.6 °F 29.9 °F 32.0 °F 87% 30.28 in 10.0 mi SE 6.9 mph - N/A   Clear
3:35 PM 33.8 °F 28.6 °F 30.2 °F 87% 30.28 in 10.0 mi SE 5.8 mph - N/A   Clear
3:55 PM 33.8 °F 27.0 °F 32.0 °F 93% 30.28 in 10.0 mi SE 8.1 mph - N/A   Clear
4:35 PM 33.8 °F 27.0 °F 32.0 °F 93% 30.26 in 10.0 mi SE 8.1 mph - N/A   Clear
4:55 PM 33.8 °F 27.7 °F 32.0 °F 93% 30.26 in 10.0 mi SE 6.9 mph - N/A   Clear
5:15 PM 33.8 °F 28.6 °F 32.0 °F 93% 30.26 in 10.0 mi SE 5.8 mph - N/A   Clear
5:55 PM 33.8 °F 28.6 °F 32.0 °F 93% 30.25 in 10.0 mi SE 5.8 mph - N/A   Clear
6:15 PM 33.8 °F 28.6 °F 32.0 °F 93% 30.25 in 10.0 mi SE 5.8 mph - N/A   Clear
6:35 PM 33.8 °F 28.6 °F 32.0 °F 93% 30.25 in 10.0 mi SE 5.8 mph - N/A   Clear
6:55 PM 32.0 °F 27.5 °F 32.0 °F 100% 30.24 in 10.0 mi SSE 4.6 mph - N/A   Clear
7:15 PM 32.0 °F 27.5 °F 32.0 °F 100% 30.23 in 10.0 mi SE 4.6 mph - N/A   Clear
7:35 PM 32.0 °F 28.7 °F 32.0 °F 100% 30.23 in 10.0 mi SSE 3.5 mph - N/A   Clear
7:55 PM 32.0 °F 27.5 °F 32.0 °F 100% 30.22 in 10.0 mi SE 4.6 mph - N/A   Clear
8:35 PM 32.0 °F 28.7 °F 32.0 °F 100% 30.22 in 10.0 mi SSE 3.5 mph - N/A   Clear
8:55 PM 32.0 °F - 30.2 °F 93% 30.22 in 10.0 mi Calm Calm - N/A   Clear
9:15 PM 32.0 °F 28.7 °F 30.2 °F 93% 30.21 in 10.0 mi SSE 3.5 mph - N/A   Clear
9:35 PM 32.0 °F - 30.2 °F 93% 30.21 in 10.0 mi Calm Calm - N/A   Clear
9:55 PM 32.0 °F - 30.2 °F 93% 30.20 in 10.0 mi Calm Calm - N/A   Clear
10:15 PM 32.0 °F 28.7 °F 30.2 °F 93% 30.19 in 10.0 mi ESE 3.5 mph - N/A   Clear
10:35 PM 32.0 °F - 30.2 °F 93% 30.19 in 10.0 mi Calm Calm - N/A   Clear
11:35 PM 32.0 °F 27.5 °F 30.2 °F 93% 30.18 in 10.0 mi SE 4.6 mph - N/A   Clear
11:55 PM 32.0 °F 28.7 °F 30.2 °F 93% 30.18 in 10.0 mi SSE 3.5 mph - N/A   Clear